User: anonymous   Login
Location: Columbia
(38.9520°N, 92.3340°W)
Time: 19:29:26
(UTC-05:00)
Language:

Meteor 1-4 Rocket - Orbit

View from above orbital plane
View from above orbital plane
View from above satellite
View from above satellite

Ground track
Ground track

The orbit data is extracted from the following two-line orbital elements,

1 04394U 70037B   14304.13007135  .00011376  00000-0  48701-3 0  7178
2 04394 081.2463 058.1837 0047482 150.8008 209.5894 15.21628431418378
Epoch (UTC): 31 October 2014 03:07:18
Eccentricity: 0.0047482
inclination: 81.2463°
perigee height: 468 km
apogee height: 533 km
right ascension of ascending node: 58.1837°
argument of perigee: 150.8008°
revolutions per day: 15.21628431
mean anomaly at epoch: 209.5894°
orbit number at epoch: 41837

The dashed part of the orbit path shows where the satellite is in the earth's shadow,  

DLR